Ephrata, WA

10:21 AM PDT on May 26, 2017 (GMT -0700)
Ephrata Municipal

Weather History for KEPH - May, 2013

Change the Weather History Date:

Friday, May 31, 2013

  Actual Average Record
Temperature  
Mean Temperature 61 °F 63 °F  
Max Temperature 71 °F 76 °F 101 °F (1986)
Min Temperature 50 °F 51 °F 35 °F (1984)
Degree Days  
Heating Degree Days 4 4  
Month to date heating degree days 173 212  
Since 1 July heating degree days 5496 5909  
Cooling Degree Days 0 2  
Month to date cooling degree days 57 35  
Year to date cooling degree days 57 37  
Growing Degree Days 10 (Base 50)    
Moisture  
Dew Point 34 °F    
Average Humidity 38    
Maximum Humidity 54    
Minimum Humidity 22    
Precipitation  
Precipitation 0.00 in 0.03 in 0.74 in (1997)
Month to date precipitation 0.70 0.65  
Year to date precipitation 2.22 3.46  
Sea Level Pressure  
Sea Level Pressure 30.20 in    
Wind  
Wind Speed 7 mph (WSW)    
Max Wind Speed 22 mph    
Max Gust Speed 28 mph    
Visibility 10 miles    
Events      
T = Trace of Precipitation, MM = Missing Value Source: NWS Daily Summary

Daily Weather History Graph

Daily Weather History Graph

Search for Another Location

Airport or City:

Trip Planner

Search our weather history database for the weather conditions in past years. The results will help you decide how hot, cold, wet, or windy it might be!

Date:

Astronomy

May. 31, 2013 Rise Set
Actual Time 5:06 AM PDT 8:46 PM PDT
Civil Twilight 4:27 AM PDT 9:25 PM PDT
Nautical Twilight 3:35 AM PDT 10:17 PM PDT
Astronomical Twilight 2:22 AM PDT 11:30 PM PDT
Moon 1:03 AM PDT (5/31) 12:48 PM PDT (5/31)
Length of Visible Light 16h 57m
Length of Day
15h 40m
Waning Gibbous, 50% of the Moon is Illuminated
May 31
Waning Gibbous
May 31
Last Quarter
Jun 8
New
Jun 16
First Quarter
Jun 23
Full

Hourly Weather History & Observations

Time (PDT) Temp. Dew Point Humidity Pressure Visibility Wind Dir Wind Speed Gust Speed Precip Events Conditions
12:53 AM 53.1 °F 34.0 °F 48% 30.11 in 10.0 mi WNW 17.3 mph 24.2 mph N/A   Clear
1:53 AM 52.0 °F 34.0 °F 50% 30.12 in 10.0 mi WNW 21.9 mph - N/A   Clear
2:53 AM 52.0 °F 34.0 °F 50% 30.13 in 10.0 mi NW 18.4 mph - N/A   Clear
3:53 AM 51.1 °F 34.0 °F 52% 30.14 in 10.0 mi WNW 15.0 mph - N/A   Clear
4:53 AM 51.1 °F 33.1 °F 50% 30.16 in 10.0 mi WNW 13.8 mph 20.7 mph N/A   Clear
5:53 AM 50.0 °F 34.0 °F 54% 30.19 in 10.0 mi NNW 3.5 mph - N/A   Clear
6:53 AM 54.0 °F 34.0 °F 47% 30.22 in 10.0 mi Calm Calm - N/A   Clear
7:53 AM 57.9 °F 34.0 °F 41% 30.23 in 10.0 mi WNW 6.9 mph - N/A   Clear
8:53 AM 61.0 °F 34.0 °F 36% 30.24 in 10.0 mi NNW 5.8 mph - N/A   Clear
9:53 AM 61.0 °F 34.0 °F 36% 30.24 in 10.0 mi South 3.5 mph - N/A   Clear
10:53 AM 64.0 °F 34.0 °F 33% 30.24 in 10.0 mi Variable 6.9 mph - N/A   Clear
11:53 AM 66.0 °F 35.1 °F 32% 30.24 in 10.0 mi SSE 8.1 mph - N/A   Clear
12:53 PM 66.9 °F 36.0 °F 32% 30.23 in 10.0 mi Variable 6.9 mph 16.1 mph N/A   Clear
1:53 PM 68.0 °F 34.0 °F 28% 30.22 in 10.0 mi South 9.2 mph 21.9 mph N/A   Clear
2:53 PM 70.0 °F 34.0 °F 27% 30.21 in 10.0 mi South 8.1 mph - N/A   Clear
3:53 PM 70.0 °F 32.0 °F 25% 30.21 in 10.0 mi SSW 5.8 mph - N/A   Partly Cloudy
4:53 PM 70.0 °F 32.0 °F 25% 30.21 in 10.0 mi Variable 4.6 mph - N/A   Clear
5:53 PM 70.0 °F 28.9 °F 22% 30.20 in 10.0 mi Calm Calm - N/A   Clear
6:53 PM 70.0 °F 32.0 °F 25% 30.19 in 10.0 mi SSW 8.1 mph - N/A   Clear
7:53 PM 66.9 °F 32.0 °F 27% 30.19 in 10.0 mi South 5.8 mph - N/A   Clear
8:53 PM 60.1 °F 36.0 °F 41% 30.19 in 10.0 mi SSE 6.9 mph - N/A   Clear
9:53 PM 57.0 °F 37.0 °F 47% 30.20 in 10.0 mi Calm Calm - N/A   Clear
10:53 PM 57.0 °F 37.0 °F 47% 30.20 in 10.0 mi Calm Calm - N/A   Clear
11:53 PM 53.1 °F 37.9 °F 57% 30.19 in 10.0 mi Calm Calm - N/A   Clear